GFSMA_sfc_temp_000.txt.gz
Temp
62 61 61 61 60 60 59 59 59 60 60 61 60 60 60 60 60 59 57 63 65 67 71 73 73 73 72 71 70 69 70 70 70 70 70 69 69 68 69 68 68 68 69
61 61 60 61 60 59 60 59 59 59 59 59 60 60 60 60 60 60 59 57 63 65 68 71 72 73 73 72 70 70 69 69 69 70 69 69 69 69 69 68 68 68 68
62 61 59 59 59 60 60 59 59 58 58 59 58 59 59 60 58 59 59 59 58 62 64 67 69 70 71 71 70 70 69 68 68 69 69 68 68 68 67 66 68 68 68
62 59 59 59 58 58 58 57 57 57 56 55 55 56 57 58 59 59 58 59 60 61 61 63 65 67 68 70 70 70 70 69 68 68 68 67 67 67 67 67 67 68 67
63 61 59 59 59 57 56 56 55 54 53 54 57 57 56 56 56 61 59 59 56 60 58 61 63 64 65 67 69 70 70 70 69 69 68 67 67 67 66 66 66 66 66
61 59 59 57 57 55 54 54 53 53 52 51 59 56 53 54 55 53 54 58 57 57 56 58 56 60 61 65 67 69 70 71 70 69 69 68 67 66 66 66 65 66 67
59 57 55 55 54 53 52 52 51 50 51 50 49 54 51 53 52 51 52 52 54 54 55 56 56 54 56 62 65 67 70 71 71 70 69 68 67 65 65 65 65 65 66
58 58 53 52 52 51 50 49 49 48 49 49 47 45 46 52 49 51 49 51 47 50 53 54 54 54 53 53 57 64 67 69 70 70 69 67 65 65 65 65 65 65 65
55 54 52 51 50 50 48 48 48 47 45 46 46 45 40 38 40 46 47 47 45 45 46 48 53 56 54 51 53 56 59 60 65 68 68 66 65 65 65 65 65 65 65
53 53 52 50 49 48 47 47 49 45 45 42 44 48 44 42 41 40 43 47 45 47 43 44 46 50 54 54 53 52 51 53 58 64 66 66 65 65 65 65 65 65 64
51 51 50 48 48 47 46 45 45 44 43 42 41 41 41 41 44 39 36 39 44 43 43 42 42 45 50 52 51 51 50 50 52 58 61 62 63 63 64 64 65 65 64
49 48 49 46 45 44 43 42 42 42 41 40 39 40 39 38 37 36 38 36 38 41 41 41 40 42 45 48 53 52 51 49 49 52 55 58 59 60 61 61 63 64 64
48 46 45 44 43 43 43 42 41 40 40 39 39 40 40 39 39 38 38 37 36 39 36 39 41 41 45 44 47 51 51 48 49 50 51 52 55 57 57 58 58 61 64
45 44 44 44 44 44 42 41 40 39 38 37 36 36 36 37 37 36 38 35 34 37 36 35 39 40 41 44 46 49 49 48 48 47 47 49 51 54 54 54 55 56 57
47 44 43 43 43 42 42 40 38 37 36 36 35 35 35 36 36 37 40 36 33 29 32 34 35 41 41 41 44 45 46 48 47 47 46 47 49 51 51 53 53 54 54
45 44 43 42 42 41 40 39 37 36 36 35 37 35 35 36 36 38 38 38 36 33 30 36 38 41 43 46 47 45 47 49 47 45 45 46 48 51 51 51 52 52 52
45 46 45 43 42 41 39 37 36 36 35 34 34 34 34 34 33 34 35 37 36 36 32 35 38 39 38 39 42 43 46 46 46 46 46 45 46 47 48 49 49 50 51
43 43 44 43 41 39 38 36 35 35 34 33 33 32 32 37 32 33 33 33 34 36 36 31 34 36 36 38 39 40 44 49 47 48 46 45 45 45 45 45 46 46 47
43 44 43 41 40 39 38 35 34 33 31 31 31 30 30 31 30 31 31 31 33 37 34 33 33 34 34 36 37 38 38 39 45 49 46 45 45 45 45 45 45 45 45
43 42 42 41 40 38 36 35 33 31 31 31 31 30 30 29 29 29 31 31 33 30 30 29 29 29 30 33 34 33 31 33 35 43 43 42 42 44 44 43 43 44 44
43 42 41 39 37 37 35 31 32 31 30 30 30 30 30 32 35 35 33 30 28 26 27 27 26 26 27 27 28 29 29 29 32 33 35 36 34 36 38 40 43 44 44
40 41 38 36 34 37 35 35 32 29 30 29 27 28 28 32 31 33 33 34 34 29 28 25 25 24 25 25 26 26 25 26 26 31 31 31 33 33 35 37 41 42 42
41 38 36 34 32 31 35 35 34 29 28 26 27 27 28 32 30 29 31 32 32 33 34 30 26 25 25 26 27 25 24 24 24 29 29 27 32 31 33 39 41 43 43
38 34 31 32 31 33 35 35 33 28 28 27 27 26 26 27 28 29 29 29 29 29 29 30 27 26 27 28 28 29 27 27 27 28 29 23 28 27 31 32 39 42 42
32 32 32 31 29 28 34 34 30 24 25 25 28 28 28 26 29 31 28 25 25 27 32 33 34 33 33 33 32 29 27 27 25 26 27 26 24 21 22 23 28 38 40
33 32 30 28 31 27 32 32 30 21 18 23 25 27 28 28 29 30 27 25 22 24 25 25 26 28 29 29 33 31 27 25 25 21 26 25 25 24 20 22 23 24 24

GFSMA_sfc_temp_003.txt.gz
Temp
60 59 59 59 58 58 58 58 58 58 58 58 58 58 58 58 58 58 58 63 64 67 71 73 74 74 73 72 70 70 70 69 69 69 69 68 68 68 69 69 68 68 68
59 59 59 59 58 57 57 57 57 56 56 56 58 58 58 57 58 58 58 57 62 64 67 71 73 74 74 73 71 70 69 69 69 69 68 68 67 67 68 68 69 69 68
59 59 58 58 57 57 57 56 55 55 55 56 55 56 57 58 57 57 57 57 57 61 63 65 68 70 72 72 71 70 69 68 68 68 68 68 67 67 67 67 68 69 69
60 58 57 57 56 55 55 54 54 54 53 52 52 54 54 55 56 59 55 54 54 57 59 61 63 65 67 70 71 71 70 69 68 68 67 67 67 67 66 67 67 67 68
59 56 56 54 54 54 52 52 52 52 50 50 54 52 51 51 52 56 54 54 54 54 55 58 59 60 63 65 67 70 71 71 70 69 68 67 67 66 66 66 66 67 67
57 56 54 53 53 52 51 50 50 50 50 49 55 53 50 51 50 48 50 54 52 51 52 53 53 54 58 60 63 66 69 71 71 70 69 68 67 66 65 65 65 66 67
56 53 51 51 51 50 49 49 48 48 49 47 47 51 49 49 50 48 48 47 50 51 52 53 52 53 54 56 59 62 65 69 71 71 70 68 67 65 65 65 65 65 65
53 54 51 50 49 48 48 47 46 46 45 45 43 42 40 46 45 49 46 47 44 46 49 51 50 52 52 50 52 58 61 63 66 69 69 67 66 65 65 65 65 65 65
52 51 50 48 47 46 45 45 44 43 42 43 43 41 38 35 38 43 46 44 42 43 43 45 48 49 49 52 52 51 54 55 59 63 67 67 65 65 64 65 65 65 64
49 50 48 47 45 44 43 44 44 41 41 39 41 46 41 39 35 35 40 45 43 45 41 41 43 45 46 48 52 52 52 51 54 59 63 66 66 65 64 64 64 64 64
47 48 47 47 45 43 42 41 41 40 40 38 38 38 38 38 38 36 34 37 41 41 44 40 41 41 44 45 46 50 51 50 52 55 58 61 63 63 63 63 63 64 65
46 47 48 45 43 42 41 40 40 40 38 38 37 40 38 38 37 36 35 36 35 39 39 41 39 40 41 42 49 51 51 50 51 52 53 55 57 58 59 60 61 62 64
47 45 43 42 41 42 41 40 39 38 37 35 35 35 36 35 36 34 35 35 34 37 39 37 39 40 43 41 43 49 50 49 49 51 52 53 52 54 56 57 58 58 59
43 42 42 42 42 42 41 40 38 37 36 34 34 34 33 34 34 34 34 33 29 30 33 37 41 40 39 41 43 48 45 47 48 49 49 51 50 50 52 54 55 55 56
45 42 43 44 43 43 41 39 38 36 35 34 33 33 32 33 32 32 33 34 32 26 28 32 32 38 41 41 42 42 43 49 48 46 47 48 50 50 50 52 53 53 54
46 45 45 42 42 43 42 38 36 36 35 33 34 32 32 32 32 31 30 32 32 31 28 32 34 38 42 44 45 40 41 48 47 45 45 46 46 48 49 50 51 52 53
43 42 44 43 43 41 40 38 36 37 35 33 32 31 31 32 30 29 29 30 30 30 28 32 37 40 40 39 41 40 41 40 41 46 46 45 45 45 47 48 49 50 51
40 40 41 42 40 40 38 37 36 34 32 31 31 30 31 35 29 28 28 29 29 31 30 28 32 34 37 39 38 39 42 44 40 46 45 45 43 44 45 45 46 46 47
42 41 40 39 39 40 38 36 34 32 31 31 31 30 29 29 27 27 28 28 29 32 31 29 30 32 34 35 36 38 37 36 41 45 43 42 42 43 44 45 44 45 45
39 38 38 38 39 38 36 35 33 31 31 31 31 30 29 28 27 27 28 29 31 29 27 27 29 29 29 31 32 31 30 33 32 40 41 40 41 42 43 44 43 44 45
39 38 37 38 37 36 35 32 32 31 30 29 30 30 29 31 34 33 31 27 29 28 28 28 26 27 27 26 27 27 28 27 31 31 31 34 35 36 38 40 43 44 43
37 36 36 34 33 36 36 36 34 29 30 29 27 28 28 31 31 32 32 32 31 28 26 27 26 26 26 26 26 25 24 24 24 30 29 29 33 33 33 36 41 42 42
35 35 33 32 31 31 36 36 36 31 29 26 27 27 27 31 29 28 29 31 31 32 32 29 26 26 27 26 26 24 23 24 24 27 28 25 29 31 32 37 40 42 42
35 31 30 31 30 32 35 34 31 26 27 26 26 25 25 26 27 28 27 27 27 28 29 30 28 27 27 27 27 28 26 25 25 27 28 21 25 25 32 33 38 41 42
31 30 31 30 28 27 33 32 29 23 24 24 26 26 27 26 28 30 27 26 26 27 32 32 32 32 32 32 31 28 24 26 25 27 26 25 23 21 20 23 31 39 40
31 31 30 27 30 25 31 31 29 21 16 22 23 25 27 27 29 30 26 24 22 25 25 25 25 27 29 28 31 29 26 25 25 22 25 25 25 23 19 20 21 23 23

GFSMA_sfc_temp_006.txt.gz
Temp
57 57 57 57 58 57 56 56 56 57 56 57 57 57 57 57 57 57 56 61 63 66 69 72 73 74 74 73 71 70 70 70 70 70 69 68 67 67 68 68 68 69 69
58 58 58 57 56 55 55 55 55 55 54 55 56 56 56 56 56 56 56 55 60 62 64 66 67 69 70 71 71 70 70 69 69 69 69 68 67 67 67 67 68 68 69
58 56 56 55 55 54 54 54 54 53 53 54 54 54 55 54 54 55 54 55 55 58 60 62 63 64 65 66 68 69 70 69 68 69 68 67 67 66 66 66 66 67 69
57 55 54 53 53 53 52 52 51 51 50 50 50 51 51 53 53 53 53 53 53 55 56 59 60 61 62 63 65 66 68 69 69 69 68 67 67 66 66 66 66 66 66
56 54 52 52 52 51 50 50 50 49 49 48 52 51 50 50 50 54 52 51 51 51 52 55 57 57 59 61 63 64 66 67 69 70 69 68 67 66 66 65 66 66 66
57 56 53 51 50 49 48 48 48 48 48 47 52 51 48 49 48 48 48 52 50 50 51 52 51 52 55 58 60 62 64 66 67 69 70 69 68 67 66 65 65 65 65
52 50 49 49 48 47 46 47 46 46 46 45 44 46 46 47 47 47 47 47 48 49 49 50 51 51 52 54 56 59 62 64 65 66 68 69 68 66 65 64 64 64 65
51 51 48 47 47 46 45 44 43 44 44 43 41 41 39 43 45 47 46 46 43 45 48 49 48 49 50 49 51 56 57 59 62 63 64 65 66 66 65 65 64 65 64
49 48 48 46 45 44 43 42 42 42 40 41 41 40 36 34 37 42 43 43 42 43 43 44 47 48 49 47 49 50 53 53 57 60 62 64 64 66 65 64 64 64 64
48 48 47 45 44 43 42 42 43 41 41 37 40 43 40 38 35 35 42 42 41 43 41 41 43 44 46 46 48 49 50 51 53 57 60 62 64 65 65 64 64 64 64
47 47 46 44 43 42 41 41 39 39 39 37 37 36 37 37 37 35 32 36 42 41 41 41 41 41 44 44 44 47 50 50 51 54 57 59 61 64 63 63 63 63 64
45 45 45 42 41 41 40 39 39 38 37 36 36 36 35 34 33 33 31 32 34 38 39 40 40 41 41 42 46 48 48 48 50 52 54 56 57 58 59 60 61 61 62
44 42 41 41 40 41 42 40 38 37 36 35 34 35 35 34 35 34 32 31 31 33 34 37 39 41 43 41 42 46 47 47 48 50 52 53 54 55 56 57 57 58 59
41 41 41 41 41 44 41 42 40 36 36 34 34 33 33 33 34 33 32 30 27 30 31 33 37 40 39 41 43 46 43 46 47 48 49 51 52 52 52 54 55 56 56
43 40 40 42 42 40 40 39 37 39 36 35 34 34 32 33 32 31 32 31 28 24 27 32 32 38 40 41 43 42 40 44 47 46 46 47 48 49 51 52 52 53 55
42 43 41 42 42 41 42 40 36 36 35 34 34 33 32 32 31 31 30 30 30 27 24 32 34 37 40 43 45 43 41 44 44 45 45 45 45 46 48 49 50 51 52
41 41 42 42 39 39 38 36 35 35 34 33 32 32 32 31 30 30 29 29 29 28 25 29 34 37 36 38 41 42 42 41 40 44 45 44 43 43 44 46 47 49 51
39 41 40 39 38 37 36 35 34 34 33 32 32 31 31 34 29 29 28 28 28 29 27 25 30 32 34 37 38 39 41 43 39 44 43 43 43 43 43 43 44 46 47
38 38 39 37 37 36 35 34 33 33 32 31 31 30 30 29 27 27 27 27 28 30 30 28 28 31 33 34 35 38 38 38 41 43 42 41 42 42 42 43 44 45 46
37 39 37 36 36 36 35 34 33 31 31 31 31 30 29 29 28 27 28 28 29 27 28 29 28 28 30 34 32 32 32 35 35 40 40 39 40 41 41 41 42 44 44
40 36 35 35 34 35 35 32 32 31 30 29 29 30 30 31 34 33 31 28 27 27 27 27 27 29 28 28 29 30 30 31 32 34 34 36 37 37 39 40 42 44 44
37 34 33 33 32 35 36 36 35 30 30 29 29 28 28 30 30 31 30 31 30 27 25 25 26 26 28 28 28 29 28 27 28 33 32 32 35 36 37 38 41 42 42
34 33 32 32 30 30 35 35 32 28 27 26 26 26 26 30 28 27 28 30 30 30 30 27 25 26 27 29 30 27 26 26 27 31 32 30 32 32 36 39 40 42 42
33 31 30 29 29 32 34 32 31 26 26 26 25 25 25 25 26 28 27 27 28 29 30 30 29 28 29 29 30 30 29 28 28 29 31 26 30 30 34 35 38 41 41
31 30 30 28 28 27 33 32 29 24 24 24 26 26 26 25 28 30 27 25 26 28 32 32 32 32 32 32 31 28 25 25 25 28 29 29 29 28 28 32 34 38 40
31 30 29 27 30 25 30 31 29 21 17 22 24 25 26 27 29 30 26 24 22 26 27 28 28 29 29 29 30 30 28 25 25 24 29 27 28 28 26 28 29 31 32

GFSMA_sfc_temp_009.txt.gz
Temp
72 72 71 72 71 72 71 71 71 71 70 70 70 70 69 69 70 73 72 61 62 65 67 68 68 68 69 69 69 70 70 70 70 70 69 68 68 67 67 68 67 68 68
69 70 69 69 69 69 70 70 69 69 69 69 68 68 67 68 69 69 72 68 60 61 63 64 65 66 66 67 67 67 69 69 70 70 69 68 67 67 67 67 67 67 68
66 66 68 67 66 68 68 69 68 68 68 68 67 68 68 66 67 66 67 67 67 59 59 60 61 62 63 65 65 66 66 67 68 69 69 68 67 67 66 66 66 67 67
66 66 67 66 67 67 67 67 66 67 66 65 65 66 66 66 65 65 65 65 65 65 62 58 58 59 60 62 63 65 65 66 67 68 69 68 67 67 66 66 66 66 66
63 65 65 63 63 64 64 64 64 63 62 62 64 65 65 66 65 66 62 61 61 62 63 59 57 58 58 59 60 62 64 65 66 67 68 69 67 67 66 66 66 66 66
63 64 63 62 64 63 62 63 61 62 60 59 62 62 63 64 65 63 61 61 60 59 60 59 60 61 57 57 58 60 62 63 64 65 66 67 68 67 66 65 65 65 65
63 62 63 63 62 62 60 61 62 59 60 58 59 60 61 61 60 61 61 60 57 58 58 58 59 59 60 57 57 57 59 61 62 63 64 64 65 65 66 65 65 65 65
61 62 61 62 61 61 59 58 58 58 58 56 54 54 53 57 60 59 59 57 55 56 56 56 55 56 57 59 57 55 56 56 58 60 61 63 63 65 65 65 65 65 65
63 62 61 61 60 59 58 56 55 54 54 55 53 52 48 47 49 56 55 56 54 54 54 53 54 54 54 56 56 56 53 52 54 56 58 60 63 63 65 65 65 65 65
60 60 59 58 57 57 54 54 54 53 52 50 53 54 51 49 44 43 52 53 52 51 51 51 52 52 53 54 53 51 50 50 51 54 56 59 61 63 64 65 65 65 65
58 58 57 55 54 55 52 52 51 51 52 51 50 49 48 48 48 43 40 45 49 51 51 50 50 51 52 52 53 52 48 48 49 51 54 57 59 61 63 63 64 64 64
58 57 55 54 53 52 52 52 51 49 50 50 51 49 47 44 43 42 40 42 42 47 49 49 48 50 51 51 51 48 48 47 48 50 52 55 57 59 61 63 63 63 63
57 56 53 52 52 51 50 52 51 50 50 50 48 48 48 46 46 45 42 41 40 44 45 48 48 49 50 51 51 48 48 45 45 48 51 52 54 55 58 59 60 61 60
54 53 52 51 50 51 51 49 50 49 49 48 47 46 47 47 46 44 41 38 35 39 43 42 47 47 49 50 49 47 50 46 45 46 48 50 50 52 54 56 57 57 57
52 51 50 50 51 50 50 50 49 48 48 47 46 46 46 46 45 44 43 41 36 30 34 40 40 46 47 48 48 49 49 47 45 44 46 47 47 49 50 52 53 54 54
51 50 50 50 50 51 50 49 49 48 46 47 47 45 45 44 43 43 42 41 39 35 31 39 40 42 44 46 47 48 49 46 45 43 44 46 46 46 48 48 50 51 53
50 50 50 49 50 49 49 48 47 46 45 46 45 43 42 43 42 42 42 41 39 38 32 37 40 42 41 42 44 47 49 49 48 45 43 44 44 44 45 46 46 47 50
49 48 47 47 47 47 47 47 46 47 45 44 43 42 41 42 40 41 40 38 37 38 34 32 37 37 39 42 42 43 47 49 46 44 43 42 43 43 43 44 44 45 45
47 47 47 43 45 46 46 46 44 43 42 42 41 40 39 39 38 38 38 36 35 35 34 32 33 37 38 41 41 43 43 46 47 44 43 42 42 42 42 43 43 44 45
46 46 44 44 45 45 45 44 43 42 41 40 40 39 38 37 36 36 34 33 33 31 31 31 31 33 36 40 38 39 40 44 44 46 45 41 41 41 41 42 42 43 44
46 45 43 44 43 43 43 42 42 40 40 39 38 38 37 35 33 33 33 32 31 29 30 30 30 32 33 34 32 34 37 41 42 43 43 45 46 47 47 43 42 42 43
44 44 43 42 40 41 36 36 37 38 37 36 34 35 35 33 33 31 31 31 31 30 29 29 30 31 31 33 34 32 31 34 35 44 42 43 45 45 46 48 40 40 42
44 43 41 41 40 39 35 34 32 37 35 34 33 33 32 33 32 33 32 32 31 31 31 30 29 31 31 34 33 32 32 32 33 40 39 38 43 42 45 46 41 40 41
43 42 41 40 39 37 34 33 31 35 34 33 33 32 31 31 32 31 31 31 32 33 33 33 32 33 34 36 34 33 33 34 36 38 40 33 41 38 43 45 40 40 41
42 41 40 38 37 36 32 32 32 32 31 31 32 32 31 31 30 30 30 29 30 31 33 32 32 32 32 33 33 33 29 29 29 35 40 36 37 37 39 40 43 40 39
40 40 37 36 32 34 31 31 32 31 28 29 31 31 29 28 29 30 29 28 25 28 30 31 31 33 34 34 32 33 33 28 29 30 38 34 37 37 34 40 41 42 43

GFSMA_sfc_temp_012.txt.gz
Temp
73 78 79 81 80 81 80 79 79 79 78 78 77 76 75 75 75 79 79 61 63 65 66 67 67 67 67 66 66 67 68 69 70 71 70 69 68 68 67 67 67 68 68
64 75 77 78 78 79 79 79 77 77 77 77 76 74 74 75 75 74 78 73 60 61 62 63 64 64 65 65 65 66 66 67 68 69 69 68 68 67 67 67 67 67 67
67 71 74 74 77 75 75 77 76 76 76 76 75 74 74 74 73 72 74 75 72 59 59 59 60 61 62 63 63 64 65 65 66 67 68 68 68 67 66 66 66 66 67
68 68 71 74 74 74 75 75 73 73 73 72 72 73 74 74 73 72 72 71 72 73 65 60 59 60 60 60 61 63 63 64 65 66 66 67 68 67 67 66 66 66 66
72 74 74 72 72 74 72 72 72 69 69 69 70 71 72 72 72 74 70 68 68 68 68 63 60 60 60 60 60 61 62 63 63 64 65 65 66 67 67 66 66 66 66
72 74 72 70 72 72 71 70 67 69 67 66 67 69 69 70 70 70 69 68 67 65 66 64 65 66 59 60 60 60 60 61 62 62 63 64 64 65 65 66 66 66 66
71 70 72 71 70 69 66 66 67 66 66 66 63 65 66 68 67 67 67 66 65 64 63 63 63 63 63 59 60 60 59 59 59 60 60 61 62 63 64 65 66 65 66
70 70 68 68 68 67 66 64 63 62 65 65 57 58 56 62 67 68 65 64 63 63 62 61 60 60 60 61 60 56 57 56 55 57 57 58 60 61 63 64 65 65 65
70 69 67 66 66 66 65 63 62 59 58 62 60 56 51 51 55 61 62 63 61 60 59 59 58 58 59 59 59 58 54 52 52 54 55 57 58 60 61 63 65 65 65
66 67 67 65 64 64 62 62 62 59 57 56 59 60 57 55 49 48 58 59 59 58 57 57 57 57 57 59 56 54 50 49 50 52 54 55 57 59 61 62 64 64 64
67 66 65 64 63 63 61 59 58 57 58 56 56 55 54 54 54 48 45 50 55 57 57 56 56 56 56 56 57 56 50 48 48 50 51 54 56 58 60 61 63 64 64
66 66 65 62 62 61 59 58 57 56 55 55 55 54 52 49 49 48 46 47 48 52 55 55 55 55 55 55 55 51 50 48 48 48 49 52 54 57 58 60 62 64 63
62 62 61 61 60 59 58 57 54 53 54 53 53 52 53 52 52 50 48 46 45 50 51 54 55 55 55 54 54 50 49 47 47 47 47 49 52 54 55 57 59 62 63
59 59 59 60 58 57 55 52 55 55 54 53 52 52 52 52 52 51 48 45 41 44 47 47 53 53 53 53 51 48 51 48 46 46 45 46 49 50 53 54 55 56 59
59 58 58 57 55 54 53 55 55 54 54 53 52 52 52 52 52 51 50 48 41 34 38 45 45 51 51 51 50 50 50 48 47 45 44 44 47 48 49 50 53 54 54
57 57 57 55 53 51 52 55 54 54 53 52 53 51 51 51 51 50 50 48 46 41 37 44 46 48 49 50 50 49 50 47 47 44 43 43 45 46 46 47 49 51 51
56 56 56 55 52 51 53 53 52 53 51 51 51 50 49 50 49 49 49 47 45 44 38 43 45 47 45 45 46 47 50 50 51 45 43 43 43 43 44 44 45 47 48
55 54 54 53 52 52 52 51 51 52 51 50 49 49 48 49 47 47 47 45 44 44 38 35 40 40 41 43 45 44 46 51 48 47 42 41 42 43 42 42 43 44 45
53 53 53 52 52 51 51 52 52 51 50 49 48 46 46 45 44 45 44 43 41 39 38 36 36 38 40 42 41 43 44 45 49 47 42 41 43 42 42 42 43 44 45
52 53 52 52 51 51 51 51 50 49 48 48 47 46 45 43 42 41 40 39 38 37 37 35 34 35 38 41 41 39 39 43 45 48 48 44 42 44 43 42 43 43 43
52 52 50 50 50 50 50 47 47 47 46 45 45 44 43 39 35 35 36 36 35 34 32 33 33 34 34 36 37 39 37 40 41 43 46 47 48 47 49 45 44 41 41
52 52 51 49 48 50 36 35 38 45 45 43 42 42 42 38 38 33 33 33 33 32 30 31 32 30 32 35 37 36 33 34 34 41 42 43 47 46 47 49 39 39 39
51 50 50 48 47 47 35 34 34 43 43 42 41 40 39 40 37 37 35 34 34 33 32 32 30 31 32 36 36 36 35 35 34 39 37 38 45 43 48 51 41 39 38
50 49 49 48 47 43 34 33 33 42 42 41 40 39 38 38 37 33 33 35 37 38 38 37 35 35 35 36 35 36 35 35 37 40 42 34 42 41 44 47 41 40 38
49 49 48 46 45 43 33 32 33 39 38 37 38 38 36 36 32 30 32 32 34 36 36 34 34 33 33 33 34 35 32 31 30 37 43 38 40 39 41 43 45 40 39
48 48 45 45 37 41 32 32 33 38 34 35 37 37 33 31 29 30 29 29 28 31 31 32 34 35 35 36 33 36 34 30 31 32 41 38 39 39 35 44 44 45 44

GFSMA_sfc_temp_015.txt.gz
Temp
75 75 72 78 80 81 81 80 80 79 78 78 78 77 76 76 77 78 78 63 64 65 66 67 67 67 66 66 65 66 66 67 67 68 69 69 68 68 68 67 67 67 67
73 70 73 76 76 75 77 77 77 75 76 78 77 77 75 76 76 75 76 71 62 63 63 63 63 64 64 64 64 64 65 65 66 66 67 67 68 68 67 67 67 67 67
70 68 71 70 68 73 75 75 75 76 76 77 75 75 75 75 76 74 74 75 67 60 61 61 61 62 62 63 63 63 64 64 64 65 66 66 66 66 67 67 66 66 66
69 70 70 72 75 75 75 74 74 73 72 72 72 73 73 74 73 73 74 74 73 73 61 61 61 62 61 62 62 62 63 63 63 64 64 64 64 65 65 66 66 66 66
75 75 76 74 73 75 74 73 71 70 69 69 70 71 71 72 72 73 72 72 70 66 68 65 62 61 61 62 61 62 63 62 62 62 62 63 63 63 64 64 65 66 66
74 75 75 72 72 73 72 70 67 69 68 68 69 67 68 70 70 70 69 71 70 66 66 65 65 64 60 61 61 61 62 61 61 60 60 60 61 61 62 63 64 64 66
74 72 73 72 72 70 68 68 67 64 65 67 65 64 64 66 68 70 70 69 66 67 65 64 64 63 62 60 61 60 60 60 58 58 57 58 58 59 60 61 63 64 65
73 72 69 69 69 68 66 65 64 62 63 64 60 59 54 59 64 65 66 65 64 66 65 63 61 60 60 60 59 58 59 55 55 55 55 56 57 58 59 60 62 63 64
71 70 69 68 66 66 64 64 63 61 58 61 61 57 51 50 54 60 61 63 62 62 61 61 60 60 59 58 58 58 55 51 53 54 54 55 55 57 58 59 61 62 63
69 70 69 67 65 64 63 63 65 60 58 56 59 61 59 56 49 47 57 58 59 59 59 59 59 58 58 58 56 54 51 50 50 52 53 53 54 56 57 58 60 61 62
69 69 68 65 64 63 63 61 60 59 59 57 55 55 54 55 54 50 45 50 56 58 58 57 57 57 57 57 57 55 51 50 49 50 51 52 53 55 57 58 59 61 62
66 66 65 63 62 62 61 61 60 58 55 54 56 55 52 50 49 49 46 47 48 52 56 56 56 56 57 57 57 53 51 48 48 50 50 50 51 52 55 56 58 59 61
62 62 61 61 61 61 61 60 55 53 52 52 53 52 54 52 52 50 48 46 46 50 51 54 55 56 56 55 55 51 50 48 48 49 49 49 49 50 52 53 55 57 58
61 61 60 60 60 60 56 54 53 52 53 54 53 52 52 52 53 52 48 45 42 45 47 47 53 54 54 54 52 49 51 48 47 47 48 47 47 48 50 50 51 53 56
61 60 59 59 59 56 54 54 51 53 52 54 52 52 52 52 52 52 51 49 44 36 39 46 47 52 53 52 51 50 50 49 47 46 46 46 45 46 47 48 49 50 52
59 58 58 58 58 54 55 52 54 55 52 53 54 52 51 51 51 51 50 49 48 43 38 46 48 49 50 50 49 48 48 47 47 46 45 45 43 43 45 45 46 47 49
58 57 57 56 56 57 55 54 53 52 50 52 52 50 50 50 49 48 50 49 48 46 41 45 48 47 45 44 45 47 48 48 49 47 44 44 43 43 43 43 44 45 46
57 57 56 55 55 55 53 52 51 52 51 50 49 49 48 50 47 48 48 46 46 46 43 38 41 41 41 43 44 43 46 48 48 48 45 41 43 43 43 43 43 43 44
56 56 56 55 55 54 52 52 51 52 51 50 49 48 46 46 45 45 44 43 43 43 41 36 35 39 41 42 42 43 43 44 48 47 42 40 43 42 43 43 43 43 43
55 55 55 54 53 53 53 53 52 50 50 49 47 47 46 45 43 40 39 39 39 37 37 36 35 36 38 40 40 37 38 43 42 46 43 41 45 45 45 44 43 42 42
55 55 54 52 51 52 52 48 48 48 47 46 46 47 46 41 37 36 37 36 35 34 33 32 32 33 34 34 35 37 36 38 40 42 39 41 43 47 46 44 45 41 40
55 55 54 53 49 51 35 36 37 45 46 46 44 45 44 42 41 37 36 35 34 32 31 31 32 31 32 33 36 35 35 34 32 41 37 35 43 43 46 46 39 39 38
54 53 53 52 49 48 36 35 34 43 45 44 43 42 42 43 39 40 37 36 36 36 34 34 31 32 31 34 33 32 32 32 34 38 35 34 41 39 46 47 41 39 37
52 52 52 51 50 42 35 34 34 41 44 43 42 41 40 40 37 33 33 34 36 37 39 38 36 34 35 35 35 35 34 35 37 39 40 32 40 39 43 45 42 41 39
52 51 52 50 49 43 35 34 33 41 41 40 41 41 39 37 32 31 31 31 33 35 38 36 35 34 34 34 34 33 31 30 29 34 39 35 38 37 40 41 44 41 39
51 52 50 49 39 44 34 34 34 39 37 37 39 40 35 33 30 30 29 28 27 31 32 32 33 34 36 37 36 35 34 29 30 30 36 33 36 38 35 42 43 43 40

GFSMA_sfc_temp_018.txt.gz
Temp
67 67 66 68 68 67 67 66 67 67 66 68 69 69 68 67 67 65 60 64 65 67 67 67 67 66 66 65 64 65 65 65 66 66 66 66 67 66 67 67 67 67 67
66 66 66 65 65 66 66 66 65 65 65 66 66 67 66 65 66 65 64 59 63 64 64 65 65 65 64 64 63 63 64 64 64 65 65 65 65 65 65 66 66 66 66
65 64 63 63 63 65 65 65 64 64 63 65 64 65 64 64 64 64 64 63 59 61 61 63 64 64 63 64 63 63 63 63 63 63 64 64 64 64 64 64 65 66 66
66 64 63 63 64 64 64 63 61 61 60 60 59 60 60 61 63 65 63 62 61 62 60 62 63 64 62 63 63 63 63 63 62 62 62 62 62 62 62 63 63 64 65
69 65 63 63 63 63 62 62 59 58 57 58 61 59 57 57 59 65 61 61 60 58 61 62 62 62 62 62 62 63 63 62 62 62 61 60 60 60 61 61 62 63 64
67 64 63 63 63 62 60 59 57 58 56 54 62 61 56 56 57 57 60 63 61 61 60 58 55 56 60 60 61 62 61 62 61 60 59 58 58 59 59 60 61 62 63
67 64 62 62 61 59 58 58 56 54 53 54 52 52 54 55 54 55 55 55 56 60 60 57 56 54 53 59 59 60 60 60 59 58 58 57 56 57 58 59 60 61 62
65 65 61 60 59 58 56 55 53 52 52 52 48 48 44 48 52 54 52 54 51 56 56 56 53 54 51 50 52 58 58 55 56 56 56 56 56 56 56 58 59 60 61
65 63 62 59 57 56 54 53 52 52 48 49 51 46 42 39 45 49 50 50 49 49 49 52 53 53 51 48 51 52 54 52 53 54 54 54 54 55 56 57 58 59 60
63 63 60 57 55 55 53 53 56 50 49 46 48 53 47 44 39 39 45 47 48 50 47 47 48 50 50 48 52 53 51 51 51 52 53 54 54 54 55 55 58 59 59
60 60 58 54 53 53 53 52 51 50 49 46 45 44 44 43 43 39 37 39 45 47 48 47 46 46 49 48 47 49 51 49 50 51 52 53 53 53 53 54 56 58 59
56 56 57 53 53 52 52 52 51 49 47 45 45 46 43 40 40 38 36 37 38 42 45 46 45 44 46 46 52 52 50 49 49 50 51 52 52 52 52 53 54 55 57
53 53 53 52 52 52 52 50 49 47 45 43 44 43 45 43 43 42 40 38 36 41 40 42 43 44 49 44 45 51 51 48 48 49 50 50 50 50 50 51 52 54 55
52 53 52 52 52 53 51 49 47 45 45 44 44 45 43 43 46 42 40 36 34 37 38 38 42 42 43 43 45 49 44 47 47 47 47 48 49 49 49 49 50 51 52
55 52 51 51 51 51 50 48 45 44 45 44 43 46 43 43 42 42 41 39 34 30 33 38 39 42 42 42 43 43 42 46 46 46 46 47 48 48 47 47 48 48 49
52 52 51 51 50 50 51 49 46 46 47 44 45 45 43 42 42 40 42 40 39 36 32 39 40 40 40 44 44 42 42 45 45 45 45 45 46 47 45 45 45 46 47
52 52 51 50 50 49 49 47 46 46 45 43 45 44 42 42 42 39 39 39 39 37 33 36 40 38 37 37 39 40 42 41 42 45 45 45 44 43 43 44 44 44 45
52 51 51 50 51 49 49 47 45 45 44 43 45 42 41 46 39 38 38 36 35 36 34 31 34 34 34 36 37 37 41 44 42 45 45 43 43 42 42 42 43 43 43
51 50 51 50 49 47 47 46 46 45 45 44 41 40 40 40 36 35 33 33 33 37 33 30 30 33 33 35 35 36 37 37 42 45 44 44 41 40 42 42 43 42 42
50 49 49 50 49 48 49 48 47 43 42 42 42 41 40 38 34 32 33 30 32 29 30 29 29 30 31 33 32 31 31 35 35 41 42 41 41 39 40 42 43 42 41
50 50 49 49 49 48 48 42 41 40 39 39 40 42 40 38 38 34 33 29 28 26 27 27 27 28 28 28 28 30 29 30 33 35 32 36 38 37 37 42 41 41 40
50 49 48 48 46 49 37 37 37 36 39 38 36 37 37 40 37 36 37 36 33 26 26 25 26 26 27 28 29 28 27 27 25 33 33 31 37 35 37 40 39 40 38
48 48 47 47 46 38 36 36 35 35 36 36 35 34 36 41 35 31 33 34 33 35 35 30 28 28 27 28 29 26 26 26 26 31 30 29 35 33 39 42 37 39 37
47 46 46 46 45 39 36 36 35 32 34 35 34 34 33 32 28 29 27 27 29 30 32 34 28 28 29 30 29 29 28 27 29 30 32 26 33 31 36 37 42 40 38
46 45 46 45 44 35 36 35 34 31 33 33 35 35 34 31 31 32 27 26 26 28 35 34 33 34 34 34 34 30 25 24 22 27 30 29 29 30 30 29 32 41 39
46 46 44 43 39 34 35 35 33 29 30 29 32 33 33 30 31 31 25 24 22 25 25 27 28 30 32 33 35 32 29 24 25 23 28 28 29 29 24 26 28 28 29

GFSMA_sfc_temp_021.txt.gz
Temp
62 62 62 62 62 62 62 62 62 62 62 63 62 63 63 62 62 60 56 64 65 68 68 67 66 66 65 65 64 64 64 65 64 65 65 65 64 64 64 65 65 65 66
61 61 61 61 61 61 61 60 59 58 58 60 60 61 61 60 60 60 57 57 63 65 66 66 65 65 65 65 64 63 64 64 64 63 63 63 63 63 63 63 63 64 65
61 60 59 58 59 59 59 59 58 57 57 60 58 59 59 58 58 59 58 56 57 61 63 64 65 64 64 64 64 63 63 63 63 63 63 62 61 61 61 61 62 63 64
61 59 58 57 58 58 57 56 55 55 54 54 53 54 54 56 57 58 58 56 54 57 60 62 63 63 63 63 63 63 64 62 62 62 62 61 60 59 59 60 60 61 62
63 59 57 57 59 57 55 56 54 53 51 51 55 53 51 51 53 58 56 57 54 53 54 61 60 60 61 61 62 63 63 62 62 62 60 60 59 58 58 58 59 60 61
62 58 57 56 56 55 54 53 52 52 50 49 57 54 49 50 51 49 50 56 54 55 56 53 50 53 59 59 60 60 61 61 61 60 59 58 58 57 57 57 58 59 60
60 57 56 55 55 53 52 52 50 49 49 48 46 46 48 49 50 48 48 49 50 52 56 56 52 50 51 58 58 59 59 59 58 58 58 57 56 56 56 56 57 58 59
59 59 56 54 54 53 51 50 48 47 47 46 44 41 39 43 45 48 46 48 45 48 52 55 52 51 49 49 51 57 57 56 57 57 57 56 56 56 56 56 56 57 58
60 57 54 52 51 50 49 48 47 47 44 45 46 42 37 34 38 43 46 45 44 43 43 46 48 49 48 46 48 50 55 54 54 54 55 55 55 55 55 55 56 56 57
56 56 53 51 49 48 48 47 51 46 44 41 43 48 42 40 34 33 39 41 43 45 42 42 43 46 46 44 49 51 52 50 50 52 54 54 54 55 54 55 55 55 56
54 54 52 50 48 47 47 47 46 44 43 41 40 40 40 39 39 35 30 35 39 41 42 41 41 41 44 44 43 47 50 49 50 52 52 53 54 54 54 54 55 55 55
50 50 52 49 48 48 46 45 44 44 42 42 41 40 39 38 36 35 32 32 33 37 40 41 40 40 41 42 49 51 50 48 49 50 50 51 52 52 52 53 53 54 54
47 47 48 47 46 47 47 46 44 42 42 40 40 40 40 40 40 38 35 33 32 34 36 38 39 40 45 40 41 48 48 47 47 48 48 49 49 50 50 51 52 52 52
47 47 47 47 47 47 46 45 43 42 42 40 40 39 39 39 40 39 37 33 28 30 32 34 37 39 39 38 42 46 40 45 45 46 46 47 47 48 48 49 50 50 51
51 47 47 47 46 46 46 45 42 42 41 40 40 39 41 40 40 38 37 36 32 23 29 33 32 38 37 38 40 38 38 43 45 44 44 45 46 47 47 48 49 48 48
48 47 46 46 46 46 45 44 43 43 41 40 43 41 42 41 40 38 36 36 35 29 24 32 32 34 35 40 41 39 38 43 43 43 43 44 45 46 46 46 47 47 47
48 47 47 46 46 45 44 43 42 43 41 40 42 40 40 41 37 36 35 34 32 30 25 29 32 32 32 32 35 35 38 38 38 43 43 44 44 43 43 44 44 45 45
48 47 47 47 46 45 43 43 42 43 42 42 40 39 38 43 36 34 31 30 29 29 27 25 28 30 29 31 32 32 37 41 38 41 43 43 43 42 41 41 41 42 43
47 47 48 47 45 46 44 44 42 42 40 40 40 39 38 37 31 30 30 28 27 32 26 24 26 29 29 30 31 32 33 33 38 41 41 41 41 41 41 40 40 41 42
47 47 47 46 45 45 46 45 42 39 39 39 39 38 37 34 32 30 30 28 29 25 25 24 26 27 28 30 29 26 27 30 30 36 38 39 39 40 40 38 39 42 42
48 47 46 45 45 45 46 41 41 38 37 36 36 38 36 37 39 34 31 27 26 24 24 24 24 26 26 26 26 27 26 27 29 30 31 32 34 34 36 37 38 40 39
47 46 45 45 44 46 38 39 38 35 37 35 34 33 34 36 36 36 35 34 32 25 23 21 24 24 25 25 27 24 24 23 21 28 27 28 31 31 36 38 37 38 39
45 45 45 44 42 39 38 38 37 34 34 32 32 31 33 36 31 29 30 31 30 32 32 26 24 23 23 25 25 25 24 23 23 27 27 25 29 28 35 40 40 40 38
44 44 43 43 40 38 37 37 35 32 32 32 31 31 30 27 28 29 27 25 25 27 28 30 25 24 25 27 26 28 27 26 26 28 27 22 27 27 32 35 38 40 39
43 42 44 42 37 35 36 36 34 30 31 31 32 32 31 29 31 32 27 25 24 25 31 32 32 32 32 33 33 30 26 25 21 25 27 24 25 25 29 29 32 39 39
42 42 41 39 37 32 36 36 34 26 29 27 29 30 33 29 32 32 25 22 20 23 24 25 26 27 29 29 33 29 29 25 24 23 27 25 26 26 23 25 26 27 27

GFSMA_sfc_temp_024.txt.gz
Temp
60 60 60 60 60 60 59 59 59 59 58 59 59 59 58 58 57 57 54 63 65 68 69 68 67 66 65 65 64 64 64 64 64 64 63 63 62 62 62 62 62 62 63
59 59 58 59 58 58 58 57 56 56 55 56 57 57 56 56 56 55 55 54 62 65 66 66 66 66 65 64 64 64 64 64 63 63 63 62 61 60 60 60 61 61 62
59 58 57 57 56 56 56 55 55 54 54 56 55 55 55 54 55 55 53 54 56 62 63 65 65 64 64 64 63 64 63 62 62 63 62 61 60 60 59 59 59 60 61
59 57 56 56 55 55 54 53 52 52 51 51 50 51 50 52 52 53 53 53 51 54 59 62 63 63 62 62 63 63 63 62 62 62 61 60 60 59 58 58 58 59 59
59 56 54 54 54 53 52 53 51 50 49 49 52 49 47 48 49 54 52 52 51 52 52 59 60 60 61 61 61 61 62 62 62 62 60 59 58 58 57 57 57 58 58
58 56 54 53 54 52 51 51 50 49 48 46 54 51 47 47 47 45 47 52 50 50 51 51 51 54 59 60 60 60 61 61 60 59 59 59 58 57 57 57 57 57 58
57 55 53 53 52 51 49 50 47 47 46 45 44 44 44 45 45 45 45 45 46 48 49 49 49 46 47 57 58 59 59 60 58 58 58 58 57 56 56 56 56 56 57
57 56 53 51 51 50 49 48 47 45 44 44 42 39 37 41 43 45 43 45 42 44 46 48 47 48 46 45 48 56 57 58 58 57 56 56 56 56 56 56 56 56 56
55 53 51 49 48 48 47 45 45 45 42 42 42 41 35 33 35 40 41 40 41 40 40 43 45 45 44 43 45 47 52 52 53 54 55 55 55 55 56 56 55 55 55
52 52 51 49 47 46 45 44 47 43 42 40 40 45 40 39 33 31 37 39 40 42 40 40 40 43 43 42 47 50 51 51 51 52 54 54 55 55 54 55 54 55 55
50 51 49 47 46 45 44 44 42 42 41 40 39 39 38 37 35 33 29 33 37 39 39 39 38 39 42 42 40 44 50 49 50 51 52 52 53 53 53 53 53 54 54
47 48 48 46 45 45 44 43 42 42 40 40 39 38 38 36 35 33 30 31 31 35 38 38 38 38 39 39 46 48 48 47 47 48 49 50 50 51 51 52 52 53 54
48 45 45 45 44 44 45 43 42 41 40 39 38 38 38 38 38 36 33 31 30 33 34 36 37 38 42 36 38 46 46 45 45 46 47 47 48 49 49 50 51 51 52
47 48 47 46 45 45 44 43 41 40 40 39 39 38 38 38 38 38 35 31 27 29 30 32 34 35 35 36 40 45 38 43 44 44 45 45 46 46 47 48 49 50 51
51 45 45 45 45 45 43 42 40 41 40 39 38 38 38 38 38 37 37 35 32 22 26 29 30 34 34 35 37 37 35 41 43 43 43 43 45 45 46 47 47 48 49
50 47 47 45 44 44 43 42 40 41 40 38 40 39 39 41 39 37 36 35 34 30 25 28 29 31 33 37 38 36 34 41 40 41 42 42 43 44 44 45 45 45 47
49 48 47 45 45 45 44 42 41 40 40 39 39 39 39 38 36 35 33 34 32 32 27 27 28 29 28 29 32 33 35 34 34 40 41 42 42 42 42 42 42 43 43
47 47 46 45 45 44 43 41 41 41 39 38 38 38 38 42 35 33 30 29 29 28 26 24 25 26 27 28 29 29 34 38 34 38 40 40 40 41 41 41 41 40 41
45 44 45 45 45 43 43 43 42 40 40 40 39 39 38 35 32 29 29 28 27 31 26 23 24 26 26 27 29 30 30 30 35 38 38 38 39 39 40 40 40 39 40
43 44 45 45 45 44 44 44 41 39 38 38 38 36 36 34 32 30 29 27 28 25 25 24 25 25 26 28 27 25 26 29 29 34 35 35 37 38 38 39 40 38 40
46 45 44 43 43 44 45 42 40 37 36 35 35 36 34 35 38 33 30 26 25 24 23 23 23 24 25 25 24 26 25 26 27 29 28 28 31 30 31 36 38 38 38
47 46 44 42 42 44 41 40 38 35 36 34 33 33 33 36 36 36 35 34 30 24 22 20 22 22 22 22 24 23 23 22 22 27 25 26 29 28 30 31 38 39 40
44 44 43 42 41 40 38 39 38 34 34 32 32 31 33 34 32 30 31 31 29 31 30 23 20 21 21 23 24 23 24 23 23 27 26 24 26 25 30 35 37 38 39
42 40 40 42 40 40 38 38 36 33 32 31 31 30 30 29 28 29 27 26 26 26 27 28 24 24 24 26 27 28 26 26 27 27 26 22 25 25 29 31 35 37 38
41 40 41 40 39 36 37 37 34 30 30 31 32 32 30 28 31 33 27 26 25 25 31 32 32 32 32 32 32 28 25 24 22 25 30 25 23 23 26 27 28 37 36
40 39 39 38 38 34 36 36 34 27 29 28 29 30 34 30 32 32 25 23 20 24 24 25 26 27 28 28 31 27 27 23 23 22 27 25 24 23 21 26 27 25 30

GFSMA_sfc_temp_027.txt.gz
Temp
58 59 58 58 58 57 57 56 56 56 56 56 56 56 56 54 54 53 52 61 64 67 69 68 67 66 65 65 64 64 64 64 64 64 63 62 61 61 60 60 60 60 61
58 58 56 56 56 56 55 54 54 53 53 54 54 54 53 52 52 52 52 51 61 65 67 67 66 66 65 64 64 64 63 63 63 63 62 61 60 60 60 59 59 60 60
58 56 55 54 54 54 54 53 53 52 52 54 52 52 51 51 51 51 50 50 52 59 63 65 65 64 64 64 63 64 62 63 62 62 61 61 60 59 59 58 58 58 59
57 55 54 53 53 53 52 51 51 50 49 49 48 47 47 49 50 50 50 50 50 52 55 61 63 63 62 62 63 63 63 62 62 62 61 60 59 59 58 58 58 58 58
57 54 52 52 52 51 51 52 48 48 47 46 50 46 45 45 46 51 49 49 49 49 50 58 60 60 61 61 61 61 62 61 61 61 60 60 59 59 58 57 57 57 58
56 53 52 51 51 50 49 49 48 47 45 44 52 48 43 44 44 43 44 49 47 46 47 48 46 48 57 59 60 60 61 61 61 59 59 59 59 58 57 57 57 57 57
54 52 51 51 50 49 47 48 45 45 44 43 43 43 41 42 43 42 42 42 44 45 45 45 44 43 45 53 54 58 59 60 60 60 59 58 57 56 56 57 57 57 57
54 53 50 49 49 47 47 46 45 43 42 42 40 38 36 40 41 42 40 42 40 42 44 45 44 44 42 42 48 55 56 57 58 57 57 56 56 56 56 56 56 56 56
52 50 49 47 46 46 44 43 43 43 41 40 40 40 34 32 34 38 39 39 39 39 39 42 43 43 42 41 43 46 52 54 55 56 56 56 56 56 56 56 55 55 55
50 50 48 47 45 44 44 43 45 41 40 39 39 43 39 37 33 31 36 37 38 41 38 38 39 41 41 40 45 47 49 50 52 53 54 54 54 54 54 54 54 54 55
49 49 48 46 45 44 43 43 42 41 40 39 38 38 36 35 34 32 29 33 36 38 38 38 38 38 39 39 37 42 49 47 48 49 50 51 52 52 52 52 53 53 53
45 47 47 46 48 47 43 42 41 41 39 39 38 37 36 35 34 31 29 30 31 35 37 38 37 37 37 36 43 46 47 45 45 46 47 48 49 50 51 51 51 52 52
45 45 48 48 47 47 44 43 43 40 39 38 38 37 37 36 36 34 32 30 29 31 33 36 37 35 39 34 36 44 45 43 44 45 45 46 47 48 48 49 49 50 51
47 48 48 48 46 45 43 42 41 39 39 38 37 36 38 36 36 36 33 31 27 29 31 33 34 34 33 33 38 43 36 41 42 43 43 44 45 45 46 47 48 49 49
49 48 48 47 45 44 42 42 39 39 39 38 37 36 36 36 36 36 35 34 32 24 25 29 30 32 32 32 34 34 32 38 41 41 41 42 43 44 45 45 46 47 47
50 47 47 47 44 43 43 42 40 41 39 38 38 37 36 36 37 36 34 33 32 29 26 28 28 29 30 34 35 33 31 39 38 39 40 40 41 42 42 43 44 44 45
48 48 47 45 43 43 43 41 40 40 39 38 37 37 37 37 36 34 33 33 31 29 25 27 27 28 27 27 30 29 31 31 31 38 39 39 40 40 40 41 42 42 43
47 45 44 43 43 44 43 41 39 40 38 37 37 36 37 40 34 32 31 30 28 27 26 24 25 25 26 27 27 27 32 35 31 36 38 39 39 39 39 40 40 40 41
43 43 43 43 44 43 41 40 39 39 38 38 37 36 37 36 32 30 29 28 27 30 26 23 24 25 25 26 27 28 29 29 33 36 36 36 37 37 38 38 39 39 40
42 42 43 43 44 42 42 41 40 37 36 37 36 36 35 34 32 30 29 27 27 25 24 23 24 24 24 27 25 24 25 29 28 33 33 34 35 36 36 36 37 38 39
43 43 43 44 41 41 43 40 39 36 35 35 35 35 34 35 38 33 30 27 25 24 23 22 22 22 23 23 22 24 23 24 26 28 27 28 30 30 30 33 35 36 38
45 44 44 42 40 42 41 40 38 34 35 34 33 33 33 37 37 37 37 34 29 24 22 20 20 20 21 21 22 21 21 21 21 27 25 26 29 28 29 30 34 36 38
43 43 41 42 40 39 40 40 38 34 33 33 32 32 32 34 33 31 34 33 32 32 31 23 19 20 20 22 23 22 23 24 23 27 25 24 26 25 30 33 35 36 37
40 40 40 40 38 40 39 39 37 33 32 31 31 30 30 29 29 29 27 26 26 27 27 28 24 23 24 25 25 27 26 26 26 27 27 22 25 25 28 30 35 37 37
40 39 39 38 37 36 38 38 35 30 30 30 31 31 30 29 32 34 28 26 26 26 31 32 32 32 32 32 31 26 22 22 20 24 27 24 23 24 27 28 29 36 36
39 38 35 35 36 33 36 37 35 28 28 29 29 30 34 31 33 33 26 24 21 25 25 25 26 27 28 27 30 26 24 21 21 20 25 22 25 26 22 23 25 27 25

GFSMA_sfc_temp_030.txt.gz
Temp
58 57 57 56 55 56 55 54 54 55 54 54 54 53 53 52 52 52 51 60 63 66 69 68 67 66 65 65 65 64 64 64 64 64 62 62 61 61 60 60 60 60 60
56 56 55 55 54 54 53 53 52 52 51 52 52 51 51 51 51 50 51 51 60 63 66 67 66 66 65 64 64 64 63 63 63 62 62 61 60 60 59 59 59 59 60
57 55 53 53 53 53 53 52 51 51 50 52 50 49 49 49 50 49 49 51 53 59 62 64 64 65 64 64 64 64 63 62 62 62 61 60 60 60 59 59 59 59 59
56 54 53 52 52 52 51 50 50 49 48 48 46 46 47 48 49 48 49 49 50 52 56 61 62 62 62 63 63 62 63 62 62 62 61 61 60 60 59 58 58 58 58
56 53 52 51 51 50 50 51 47 48 46 46 48 45 44 44 45 50 47 47 48 49 50 56 56 57 59 60 61 61 62 62 62 62 60 60 60 59 59 58 58 58 58
54 52 51 50 50 49 48 48 46 45 45 44 51 46 43 43 43 43 44 48 46 46 47 47 46 50 56 57 58 59 60 61 61 61 60 60 59 58 57 57 57 58 58
53 51 49 49 49 48 47 47 45 44 42 42 43 42 42 42 42 42 42 43 44 45 46 45 45 45 46 53 56 57 58 58 59 59 59 59 58 57 57 57 57 57 57
51 51 48 47 47 46 45 45 45 42 41 41 40 38 36 40 41 42 41 42 41 43 45 46 45 45 44 44 49 54 55 56 57 57 57 57 57 57 57 57 57 57 57
50 49 48 46 45 45 44 43 43 43 41 40 40 40 36 34 35 39 40 40 40 40 41 43 44 45 44 43 44 45 50 51 54 55 55 56 56 56 56 56 56 56 56
48 48 47 45 45 44 43 44 44 42 41 39 40 42 39 38 35 33 38 38 39 41 41 41 41 42 42 42 44 46 48 49 50 52 53 54 54 54 54 54 54 55 55
47 47 46 46 44 44 46 46 43 41 40 39 39 39 37 36 35 33 32 35 38 39 40 39 40 40 40 40 40 44 47 46 46 48 49 50 51 52 52 53 53 53 53
45 46 46 44 46 47 45 44 41 41 40 39 39 37 37 36 35 33 31 31 32 36 38 39 39 38 38 38 43 45 45 45 45 46 46 48 48 50 50 51 51 51 52
44 44 45 46 46 47 46 43 41 41 39 38 38 37 37 37 37 35 33 32 31 33 35 38 39 38 40 37 38 43 44 42 43 43 44 45 46 46 47 48 49 50 51
47 48 48 46 47 46 43 43 42 39 39 38 37 36 37 37 36 36 35 32 30 31 33 34 36 36 36 36 38 41 36 39 40 41 42 43 43 44 45 46 47 48 49
49 48 48 47 47 45 45 43 42 40 39 38 37 37 36 36 36 36 35 34 32 29 28 33 33 35 34 34 35 36 34 37 39 40 40 41 41 42 43 44 45 45 46
49 48 47 47 45 45 44 43 41 40 38 37 38 37 36 36 35 35 35 35 33 31 29 31 32 32 33 35 35 35 33 38 37 38 39 39 40 41 41 42 42 43 44
48 48 47 46 45 44 43 41 40 39 38 37 37 37 36 36 35 34 34 33 32 31 28 30 30 31 30 31 32 32 32 32 33 37 38 38 39 39 39 39 40 41 42
47 47 46 45 44 44 43 41 39 40 38 37 37 36 36 39 35 33 32 32 30 30 28 26 28 28 28 30 29 29 32 35 34 35 37 37 37 38 38 38 38 39 40
46 45 45 44 44 43 41 39 39 39 37 37 36 35 36 35 33 32 31 30 29 31 28 26 26 28 28 29 29 30 30 31 33 35 35 36 36 37 37 37 38 38 39
44 44 44 44 43 44 42 41 40 37 37 36 36 35 35 34 33 32 31 29 29 27 26 25 25 26 26 29 28 26 26 29 29 32 33 34 35 35 36 36 36 37 37
45 44 44 44 44 43 42 40 38 36 35 34 34 34 34 35 38 34 31 29 27 26 25 24 24 24 24 24 23 26 24 26 27 30 30 32 32 33 33 34 34 35 36
44 44 43 42 41 42 41 41 38 35 34 33 33 33 33 37 37 38 37 35 30 26 24 22 23 22 23 23 24 23 23 23 22 31 28 28 32 31 33 33 34 36 37
42 42 41 40 40 41 40 39 39 34 33 33 33 33 32 34 34 32 35 35 33 33 31 25 22 23 22 24 25 23 24 24 25 29 28 26 31 29 33 35 35 36 37
40 40 39 40 40 40 39 39 38 33 32 32 32 32 31 31 30 30 29 28 28 29 29 29 26 25 25 26 26 27 25 26 27 29 30 23 30 28 32 33 34 35 37
39 38 40 39 37 35 37 37 36 31 31 31 32 32 31 30 33 35 29 27 27 28 32 33 33 32 32 32 32 27 23 22 20 24 29 25 28 27 30 30 32 34 37
39 39 37 35 35 32 35 37 36 28 29 30 30 31 35 31 33 34 29 26 23 27 27 27 27 28 30 29 30 28 26 20 21 21 28 24 26 27 25 30 30 33 32

GFSMA_sfc_temp_033.txt.gz
Temp
68 69 67 68 68 69 68 68 68 68 66 66 66 66 65 65 66 70 71 61 63 66 69 68 68 67 66 65 65 64 64 64 64 63 62 62 61 61 61 60 61 61 61
66 67 67 68 68 69 69 69 68 67 66 66 64 64 64 65 65 66 69 68 61 64 67 67 67 66 66 65 64 64 64 63 63 63 61 61 61 61 60 60 60 60 60
67 66 67 66 66 66 66 66 65 65 65 64 62 63 64 63 64 64 66 67 67 61 63 65 65 65 65 64 64 64 63 63 63 62 62 61 61 60 60 59 59 59 59
66 66 66 65 65 66 66 65 64 64 64 64 62 62 63 62 61 61 63 65 65 67 62 60 61 62 62 62 63 63 63 62 62 62 62 61 61 60 59 59 59 59 59
66 66 66 64 64 64 63 64 62 64 63 63 61 61 61 61 60 62 61 61 61 63 65 57 58 59 60 60 61 61 62 62 62 62 62 61 61 59 59 59 58 58 59
65 64 63 62 63 63 62 63 61 61 61 62 62 59 58 59 61 60 60 61 60 60 62 61 63 60 56 57 58 59 60 60 60 60 60 60 60 59 59 58 58 58 58
64 63 63 62 63 63 61 61 60 58 59 59 59 59 57 57 57 59 60 61 59 59 59 61 63 63 61 54 56 57 58 58 58 58 58 58 58 58 58 58 58 58 58
63 62 61 62 62 61 59 59 58 57 59 57 58 56 54 54 56 56 58 58 55 59 59 58 58 58 59 60 55 53 54 55 55 56 56 57 57 57 57 57 57 57 57
63 62 61 60 59 60 59 58 57 56 55 54 54 57 53 52 53 55 53 56 55 57 58 57 56 56 56 57 54 53 50 51 52 54 54 55 55 56 56 56 56 56 56
60 61 60 59 58 58 57 57 55 52 55 54 54 56 55 54 51 49 54 55 54 54 54 56 55 55 55 55 50 47 48 48 48 50 51 52 53 53 54 54 54 55 55
59 59 59 57 57 57 56 55 53 53 55 55 56 54 53 53 51 48 46 50 54 55 55 54 54 54 53 52 54 50 46 46 46 47 48 50 50 51 52 52 53 53 54
56 57 58 57 57 56 54 54 49 49 54 54 55 53 53 51 51 48 46 47 46 50 53 53 52 53 53 53 49 45 45 44 44 45 46 47 48 48 49 50 51 51 52
55 55 56 56 55 53 51 47 49 53 53 53 52 53 53 52 52 50 48 47 45 50 49 52 53 52 51 51 49 44 45 42 42 42 43 44 45 46 46 47 48 49 50
57 56 56 56 55 52 51 53 54 53 52 52 51 51 53 52 51 50 48 46 43 46 47 46 52 51 50 50 46 43 46 42 41 41 41 42 43 43 44 44 45 46 48
56 54 54 49 54 54 49 50 53 52 52 51 51 51 50 52 51 50 49 48 45 39 43 48 45 49 49 48 47 45 45 42 40 40 40 40 41 42 42 43 44 44 45
56 54 53 54 53 49 53 51 53 52 51 52 52 50 50 51 50 50 50 49 47 44 39 48 47 47 47 47 45 44 44 40 40 38 38 39 39 40 41 41 42 42 43
55 54 51 53 48 48 50 50 51 51 50 51 50 49 49 50 49 49 48 48 46 45 41 45 46 46 43 43 44 44 43 42 43 40 38 38 38 38 39 39 39 40 40
54 52 51 48 50 49 49 48 47 50 49 49 50 48 48 49 48 48 48 46 46 46 43 40 44 42 41 42 41 40 41 42 42 40 37 37 37 37 38 38 38 39 39
51 50 50 47 47 48 49 48 48 49 49 49 49 48 49 48 47 48 46 46 46 44 43 40 40 42 41 41 39 40 40 40 41 39 37 37 37 37 37 37 38 38 38
47 48 49 51 51 51 50 46 46 48 47 48 47 47 48 47 47 48 46 45 44 42 42 39 39 39 39 40 38 36 36 39 38 40 39 37 37 38 37 37 37 37 37
49 48 50 48 48 47 46 44 48 48 47 47 47 47 47 46 44 44 45 45 43 41 40 39 37 37 37 37 35 36 34 36 37 39 39 40 41 41 42 40 40 38 37
45 50 49 47 45 44 40 40 41 47 47 46 47 47 47 41 41 38 37 38 41 41 38 37 37 35 35 35 35 34 32 31 30 40 37 36 41 39 42 43 39 37 37
45 44 43 44 42 43 40 40 39 45 47 47 46 47 46 45 41 44 39 37 35 34 35 39 35 36 34 35 35 33 33 32 32 36 35 33 39 38 42 43 39 37 36
42 42 44 43 43 45 39 39 37 45 46 46 46 46 45 45 44 43 42 41 41 40 38 37 38 38 37 37 36 34 32 33 35 37 38 29 37 36 40 41 39 38 36
43 44 43 41 39 42 39 38 38 43 43 43 44 44 44 44 41 37 39 38 39 39 37 34 34 34 32 32 34 34 31 30 28 32 37 33 35 34 36 38 41 38 37
43 40 39 40 42 42 39 37 38 41 40 41 42 42 37 41 37 35 37 36 34 38 38 37 37 35 35 36 33 35 35 28 28 28 37 30 31 32 30 39 39 41 40

GFSMA_sfc_temp_036.txt.gz
Temp
77 79 77 79 79 78 78 77 76 76 74 74 74 73 73 73 73 77 78 63 64 67 69 68 68 67 66 66 65 65 64 64 64 64 62 61 61 61 61 60 60 60 60
76 76 76 77 77 79 78 78 77 76 76 75 72 71 71 73 72 72 76 73 62 64 68 68 67 67 66 65 65 64 64 63 63 63 62 62 61 61 61 60 60 60 60
74 75 77 76 76 76 75 74 74 75 75 75 71 72 74 71 72 71 74 74 72 61 63 66 66 66 65 65 64 64 64 63 63 63 63 61 61 61 61 60 59 59 59
75 75 75 75 75 75 75 75 74 74 75 75 73 73 73 72 70 71 73 74 74 75 61 61 62 62 63 63 63 63 63 63 63 63 62 62 62 61 60 59 59 59 59
75 76 76 74 73 74 73 73 72 74 73 73 73 73 71 72 69 72 70 69 69 72 73 57 59 59 60 60 61 61 62 62 62 61 61 61 61 61 60 59 59 59 59
74 75 74 71 73 73 72 72 70 71 72 72 71 68 68 68 69 69 68 71 69 68 69 67 67 64 57 58 59 59 60 60 60 59 59 59 59 59 59 59 59 59 59
74 73 73 71 72 72 71 69 69 67 68 69 66 67 66 64 64 67 68 69 66 66 66 66 67 68 65 57 56 57 57 58 58 58 57 57 57 58 58 58 58 58 58
74 73 71 71 72 70 68 67 67 67 69 67 64 65 62 63 63 63 66 64 63 65 65 63 63 62 63 64 58 53 53 54 55 56 56 56 56 56 57 57 57 57 57
73 72 71 71 70 70 68 66 66 64 64 64 63 63 61 60 63 64 60 62 61 62 63 62 61 61 61 61 58 57 50 50 51 52 53 53 54 54 55 55 56 56 56
70 72 70 68 68 69 67 66 66 65 63 62 63 64 62 61 59 57 61 60 61 60 60 61 61 61 60 60 55 49 48 47 48 49 50 51 52 52 53 53 54 54 55
68 70 67 65 65 67 66 65 63 62 64 58 63 62 60 61 59 56 54 59 62 62 62 60 60 60 60 59 59 54 46 46 46 47 48 49 50 50 51 51 52 52 53
64 63 62 63 66 66 64 62 60 61 59 62 64 62 60 59 58 57 54 55 55 58 60 60 59 59 59 59 55 44 46 46 45 45 46 46 47 48 48 49 50 50 51
55 56 61 64 65 65 62 61 60 57 60 61 59 61 61 60 60 58 55 54 53 57 57 58 59 59 59 58 56 45 48 46 44 44 44 44 45 45 46 47 48 49 49
55 60 62 65 65 56 59 58 59 54 57 60 58 59 60 59 59 57 55 53 49 53 56 54 58 58 57 57 52 44 51 47 45 43 42 42 43 43 43 44 45 46 47
61 62 63 61 58 59 57 59 56 58 59 59 58 58 58 59 58 58 57 55 50 45 48 54 54 57 57 56 53 52 50 47 44 42 41 41 41 41 42 43 43 44 45
64 62 61 60 56 55 57 57 52 59 58 58 58 57 57 58 57 57 57 56 55 50 45 54 55 56 55 54 53 51 50 46 44 43 42 41 40 40 40 41 41 42 42
62 57 60 58 55 57 56 54 59 58 56 56 57 56 55 56 56 56 56 55 54 53 48 52 55 55 52 50 50 51 50 49 49 45 42 41 39 39 39 39 39 40 40
60 60 61 57 52 56 58 55 55 55 53 52 56 56 55 57 54 55 55 53 53 53 50 47 50 51 51 51 49 47 48 50 48 46 42 40 39 38 38 38 38 39 39
59 61 61 57 52 54 55 56 52 48 47 52 55 55 55 55 53 54 54 52 53 53 52 48 47 50 50 50 48 47 47 47 49 45 43 41 41 39 39 38 39 38 39
59 59 51 50 50 56 54 52 47 46 49 51 52 53 53 53 53 53 53 52 52 51 50 48 47 47 48 49 47 44 44 46 45 47 45 43 40 41 39 40 40 39 39
55 50 48 49 48 50 50 46 46 45 46 48 52 53 54 52 48 49 53 53 52 50 48 47 45 46 45 45 43 45 42 43 44 45 45 46 46 45 46 44 43 41 41
48 47 46 49 49 47 39 39 41 43 46 50 50 53 54 48 46 41 40 40 45 49 46 45 45 43 43 44 44 42 40 38 36 46 42 41 45 44 46 47 42 40 40
47 45 46 48 47 50 41 40 39 42 45 49 51 51 52 54 48 51 41 38 37 37 38 45 43 43 42 44 43 40 40 39 38 41 41 38 44 42 46 48 42 40 40
44 44 46 49 50 47 40 39 38 44 49 50 51 51 51 52 53 50 49 48 47 47 43 43 43 45 45 45 43 41 39 39 40 43 43 35 42 40 43 45 42 41 39
50 50 47 47 45 42 39 39 39 47 48 48 50 51 51 51 46 41 46 46 46 47 43 39 39 37 36 34 36 39 35 35 33 38 43 39 39 38 40 41 44 41 39
48 45 42 41 41 47 42 39 40 46 45 46 48 49 42 44 41 38 44 43 41 45 46 45 41 38 36 38 33 37 38 33 34 33 41 36 38 36 32 40 41 42 42

GFSMA_sfc_temp_039.txt.gz
Temp
74 79 79 79 80 80 79 78 76 77 76 76 76 75 75 75 75 77 75 64 65 67 69 69 68 67 67 66 65 65 65 65 64 64 62 62 62 62 61 61 60 60 61
78 79 78 79 79 80 80 79 77 77 78 77 74 73 73 74 74 73 77 69 63 64 68 69 68 67 67 66 65 64 64 63 63 63 63 62 62 62 62 61 60 60 60
77 78 79 78 79 79 78 76 76 76 76 76 73 74 75 73 74 72 74 75 68 61 63 66 66 67 66 66 64 64 64 63 63 63 63 63 62 62 62 60 60 60 60
77 76 77 77 78 77 78 76 76 75 75 75 73 74 74 74 71 71 73 73 73 72 62 61 63 63 63 63 63 63 63 63 62 62 62 62 61 61 61 60 60 60 60
78 78 78 77 76 77 76 75 74 75 72 73 73 72 72 72 71 74 71 70 69 71 70 59 60 60 60 60 61 61 62 62 61 61 60 60 60 60 60 60 60 60 60
77 77 78 75 75 76 74 74 72 73 73 73 74 72 70 70 71 69 69 71 70 68 68 68 64 63 58 59 59 59 60 60 60 59 59 59 58 58 58 58 58 59 59
77 76 77 74 74 74 73 72 71 69 69 71 68 70 69 67 66 68 68 68 68 67 67 67 67 68 62 58 58 57 57 58 58 58 58 57 57 57 57 57 58 58 58
77 76 75 74 73 74 71 70 70 69 71 70 65 66 62 65 65 65 67 66 65 66 66 65 64 64 63 64 59 56 55 55 55 55 55 55 55 55 55 56 56 57 57
77 76 74 73 72 73 69 69 68 68 67 68 66 63 61 60 64 67 63 64 64 63 64 64 63 63 62 62 60 59 51 51 51 52 53 53 53 53 54 54 54 55 56
73 74 72 72 71 72 70 69 70 68 65 63 67 67 65 63 58 58 64 62 63 61 61 62 63 63 62 62 59 52 50 48 48 49 51 51 52 52 52 53 53 53 54
71 69 71 70 69 70 68 67 67 64 63 62 64 64 63 63 62 56 54 61 63 64 64 63 62 62 61 61 60 53 48 46 46 47 48 49 50 50 50 51 51 51 52
69 69 70 67 67 64 63 67 65 63 63 62 62 65 61 60 60 59 56 57 58 62 64 62 60 60 61 60 59 49 47 46 47 47 47 47 48 48 49 49 49 50 51
67 67 61 58 60 61 67 67 63 55 58 60 62 62 63 62 62 60 58 56 54 58 60 62 61 60 61 60 59 48 49 47 47 47 46 46 46 46 46 47 47 48 49
66 58 56 58 60 65 66 61 55 60 60 60 60 57 61 62 62 60 57 54 50 53 56 56 62 61 60 60 54 48 53 49 47 46 45 45 44 44 44 44 45 46 47
57 54 56 58 61 63 57 57 57 54 57 57 56 60 59 60 61 60 59 57 51 45 48 55 55 60 60 59 56 56 54 50 47 45 45 44 44 44 43 43 43 44 44
59 59 59 60 60 58 59 59 56 58 56 58 61 59 57 59 59 59 58 57 56 51 46 54 55 57 58 59 56 54 53 50 47 45 44 44 43 43 42 42 41 42 42
60 61 62 61 57 56 58 58 55 54 57 56 57 54 54 57 56 56 56 56 54 53 48 52 56 57 55 54 55 54 53 51 51 47 45 43 42 42 41 40 40 40 40
62 62 61 58 56 58 58 53 50 56 55 49 49 48 51 55 54 54 55 53 53 54 51 48 53 53 53 54 53 51 51 52 51 49 46 43 42 42 41 40 40 40 40
60 60 58 56 57 55 54 53 53 50 49 47 47 50 53 53 52 52 54 54 54 55 53 50 49 53 53 53 51 51 50 49 51 49 45 43 42 42 42 41 41 40 40
56 56 57 56 52 54 52 50 48 47 48 47 49 52 52 52 51 53 54 54 54 52 52 50 50 50 51 52 51 47 46 49 47 50 48 45 44 44 44 42 41 41 41
56 51 51 50 51 49 48 46 47 48 49 44 45 49 52 51 48 49 53 52 52 51 50 48 48 48 48 48 46 47 45 45 46 47 46 47 46 46 47 45 45 43 42
53 49 48 46 48 47 40 41 43 52 47 44 43 48 52 49 49 43 43 42 45 48 48 47 47 46 46 47 47 45 44 40 37 47 44 42 45 44 46 47 44 41 41
52 48 49 46 46 46 40 40 40 48 42 42 42 45 51 55 50 55 48 41 40 39 39 45 45 46 45 47 46 43 42 41 40 43 42 39 44 43 46 47 43 42 41
49 46 46 47 49 50 40 40 38 40 42 47 50 51 51 52 53 51 52 51 51 50 47 45 44 47 48 48 47 45 42 41 41 42 44 36 43 41 44 44 42 42 42
51 50 51 49 47 47 40 39 40 48 48 48 50 51 51 51 47 43 46 46 48 49 47 42 42 42 37 36 38 42 37 35 33 38 43 40 40 39 41 40 43 41 39
49 50 48 45 43 49 42 39 41 46 44 45 47 49 43 45 41 40 44 44 42 45 47 46 44 40 38 40 35 38 38 33 34 34 41 37 38 37 33 40 40 41 42

GFSMA_sfc_temp_042.txt.gz
Temp
68 67 67 68 68 69 68 67 67 67 67 67 66 66 66 65 65 63 59 64 65 67 69 70 68 68 67 66 65 65 65 64 64 63 63 63 62 62 62 61 61 61 61
68 69 69 70 69 69 69 68 67 66 65 65 64 65 65 64 65 64 61 59 63 65 68 69 68 68 67 66 65 65 64 64 64 63 63 63 62 63 62 61 61 61 60
70 70 69 68 68 69 69 67 67 66 64 66 64 64 64 64 63 63 62 60 59 62 64 67 66 66 66 66 65 64 64 63 63 63 63 62 62 61 61 61 60 60 61
71 69 68 68 69 68 67 65 64 64 63 63 61 61 62 63 63 63 63 62 60 60 60 63 64 64 64 64 64 63 63 63 62 62 61 61 60 60 60 60 60 60 60
71 69 69 69 68 67 65 66 64 63 61 61 62 61 60 59 61 66 63 62 61 59 57 60 61 61 62 62 62 62 62 62 61 61 60 59 59 59 59 59 59 59 59
72 69 68 67 67 65 64 64 62 62 61 60 68 64 59 59 59 57 59 63 60 60 58 56 53 55 59 61 61 61 60 60 60 59 59 59 58 58 57 57 57 58 58
70 68 67 66 65 65 63 63 61 59 58 59 56 57 56 57 57 57 57 57 58 59 58 56 54 53 54 59 60 60 59 59 58 58 57 57 56 56 56 56 56 57 57
71 69 67 63 65 64 63 61 60 57 58 58 54 54 50 51 54 56 55 57 55 57 57 58 56 56 54 51 52 58 58 57 56 55 55 55 55 55 55 55 55 55 56
70 69 67 65 64 63 60 60 59 58 55 55 57 53 48 47 49 52 53 53 53 52 53 55 56 56 55 52 52 53 54 54 53 53 53 53 54 53 54 54 54 54 54
69 68 68 65 64 63 61 60 62 60 57 54 55 61 55 52 46 45 50 51 52 54 51 51 52 54 54 52 55 50 51 50 50 50 50 51 52 52 52 52 52 52 53
66 65 65 63 62 61 62 59 60 59 58 53 56 56 55 51 50 46 42 47 50 51 52 50 51 51 54 53 49 49 49 48 48 48 49 50 51 51 51 51 51 51 52
63 63 65 61 61 61 59 58 58 58 54 53 54 54 54 52 48 47 44 45 46 50 53 51 49 50 50 50 55 49 48 47 47 48 49 49 49 50 50 50 50 50 50
60 60 61 60 57 58 58 58 57 55 54 51 54 54 54 55 55 53 48 45 44 48 49 52 49 49 53 49 47 48 48 46 47 48 48 48 48 48 48 48 48 48 48
61 61 61 57 57 57 56 57 56 54 53 53 53 52 53 53 54 52 48 44 40 42 45 47 52 50 49 49 47 50 46 47 47 47 47 46 47 48 47 46 46 46 46
60 56 56 55 55 56 57 54 52 52 53 52 52 52 52 53 53 52 50 48 43 36 39 46 46 50 49 49 46 43 44 50 48 45 45 46 47 47 46 46 45 45 45
57 55 54 54 55 55 54 53 52 53 52 51 52 52 52 52 52 50 51 49 48 43 36 44 44 46 48 53 49 45 45 50 48 46 45 45 46 46 45 45 45 44 43
57 56 55 55 56 54 54 52 52 52 51 51 49 47 47 48 49 48 49 48 46 45 39 41 44 46 45 44 46 45 45 43 42 47 46 45 44 43 43 43 43 43 43
58 58 57 56 57 54 53 51 51 52 49 46 46 45 46 50 47 46 46 44 43 43 40 37 41 41 42 43 43 41 46 49 43 48 46 45 44 43 42 42 42 42 42
57 57 57 55 53 52 51 50 49 47 46 45 45 45 46 46 46 44 45 44 44 50 42 39 40 41 41 41 41 41 41 40 46 49 46 45 45 44 43 43 42 42 42
54 54 53 53 51 50 50 48 46 44 44 45 46 45 47 47 45 44 45 43 46 46 44 42 41 40 38 40 39 36 35 37 37 47 46 44 44 45 44 43 43 43 43
53 51 49 48 48 48 47 46 45 44 44 44 46 46 46 45 45 45 47 45 42 42 41 39 39 38 38 36 36 36 34 34 35 36 35 36 36 35 36 42 44 44 43
49 48 48 46 45 46 41 43 44 44 45 45 43 43 45 43 44 43 43 43 44 43 41 40 40 39 37 37 37 35 33 31 29 36 33 32 35 34 37 36 43 42 41
47 45 45 46 44 45 41 41 40 43 43 41 39 42 42 47 45 46 44 41 39 39 40 42 39 39 39 39 35 35 34 31 30 32 32 29 32 33 36 43 42 42 41
45 45 44 45 44 46 40 39 38 40 40 41 41 41 41 42 43 42 41 40 42 43 43 41 39 39 40 41 36 39 36 33 32 32 33 28 31 31 33 34 41 42 41
46 45 46 47 46 43 40 39 39 40 41 39 44 43 42 40 39 40 37 34 36 39 45 43 42 41 41 41 39 35 30 27 22 28 33 31 31 28 30 29 32 41 39
48 48 46 44 43 44 41 39 39 34 34 32 35 38 38 38 37 36 32 31 31 34 35 36 37 39 36 36 37 37 34 29 26 23 32 31 29 27 22 29 29 30 29

GFSMA_sfc_temp_045.txt.gz
Temp
64 64 64 64 64 63 62 62 63 64 63 64 63 62 61 60 59 57 56 64 66 68 70 69 69 68 67 66 66 65 65 64 64 64 63 62 62 63 62 61 61 61 61
65 64 64 64 63 64 64 64 63 63 62 62 62 62 61 60 60 57 57 57 64 66 68 69 69 68 67 66 65 65 64 64 64 64 63 63 62 61 61 61 61 61 61
66 66 66 64 65 64 65 63 63 61 59 61 60 60 62 60 60 60 57 57 57 62 65 67 67 67 67 66 65 64 64 63 63 62 62 62 61 60 60 60 60 60 60
66 65 63 64 66 63 63 62 61 60 58 58 57 56 57 59 60 61 58 57 56 57 60 64 65 66 66 66 65 64 63 63 62 62 61 60 60 59 59 59 59 59 59
68 65 62 62 64 63 62 63 60 59 57 56 58 56 56 56 58 62 59 56 55 55 55 61 62 62 63 64 64 63 63 62 61 61 60 59 59 58 58 58 58 58 58
67 65 62 62 64 62 60 59 59 57 56 56 64 60 54 55 54 54 56 60 55 55 53 54 53 55 60 62 62 62 62 61 60 59 59 58 58 57 57 57 57 57 57
66 64 62 63 63 61 60 60 58 57 55 54 53 53 52 52 53 53 53 54 55 55 52 51 49 49 53 60 61 61 61 60 59 58 57 56 56 55 56 56 56 56 56
64 63 61 60 60 60 58 57 57 54 54 54 51 49 47 49 50 52 50 52 51 53 54 54 52 51 49 49 51 60 60 60 58 57 55 55 55 55 55 55 55 55 55
66 64 62 61 59 59 57 56 56 55 52 52 53 51 45 44 45 48 49 49 49 49 50 52 53 53 50 47 53 55 57 57 57 56 55 54 54 54 54 53 53 53 53
65 64 63 61 59 60 58 58 59 57 56 54 53 55 51 50 45 44 47 48 48 50 48 48 50 51 51 48 51 51 53 53 54 55 54 53 53 53 53 52 52 52 52
63 62 61 59 59 58 58 58 57 56 56 54 54 52 52 52 48 47 41 45 46 48 48 48 48 48 50 49 45 49 51 50 51 53 53 52 52 52 52 52 51 51 51
58 60 60 59 58 58 57 57 57 56 54 54 53 52 52 50 50 47 41 43 42 46 47 47 46 46 47 47 51 51 50 48 49 51 51 51 51 51 51 51 51 50 50
57 58 58 57 57 56 57 57 55 55 53 52 52 51 53 53 53 52 48 43 44 44 48 49 46 45 50 46 46 50 49 47 48 49 50 51 50 50 50 50 50 49 49
60 60 58 57 57 56 55 55 54 52 53 51 51 51 51 52 52 51 49 44 39 39 41 47 50 49 46 44 44 49 46 46 47 47 48 49 49 49 49 49 48 48 48
57 57 56 54 54 55 55 54 52 53 52 51 51 51 51 51 51 50 49 48 42 34 36 42 43 48 46 44 44 44 40 47 46 46 46 47 48 48 49 48 48 47 47
55 55 54 54 53 55 54 53 51 52 51 50 51 50 49 48 48 48 47 47 46 39 35 39 41 42 44 49 46 42 42 47 46 46 45 45 46 48 48 47 47 46 47
54 54 54 53 54 53 52 52 51 51 50 49 47 47 46 46 46 46 46 46 44 44 40 39 40 42 41 42 44 41 43 42 42 46 45 45 45 45 45 45 45 45 45
56 55 54 54 53 53 52 51 50 51 49 45 45 45 45 48 45 43 42 44 41 41 41 39 36 38 39 40 40 39 44 47 42 45 46 45 45 44 43 43 43 43 43
55 55 54 53 53 52 51 50 49 47 46 45 45 44 45 45 41 41 41 39 39 46 44 41 42 37 40 37 39 39 38 38 43 47 45 45 45 44 44 42 42 42 43
54 54 53 52 51 51 49 48 46 44 44 44 45 45 46 45 43 40 40 39 41 42 42 40 41 41 38 40 40 40 38 34 38 45 46 43 42 44 44 43 43 43 43
52 51 50 49 48 48 47 45 45 44 44 44 44 46 45 44 43 42 42 40 37 37 37 37 37 37 35 33 35 37 34 38 33 36 33 34 34 34 34 40 41 43 43
49 48 47 46 46 46 41 42 44 44 44 44 43 43 44 43 42 40 40 40 40 39 37 36 37 36 37 34 37 35 34 33 32 33 32 31 34 31 33 33 40 41 41
46 45 44 44 43 43 41 41 41 43 43 41 41 41 42 44 40 39 37 37 36 38 37 34 34 36 37 38 35 34 33 35 35 34 33 32 30 29 32 40 41 41 41
42 39 40 41 43 44 40 40 38 40 40 41 41 40 36 35 35 35 33 32 33 35 36 37 35 35 36 38 38 38 37 38 37 35 33 31 27 28 31 31 39 41 41
40 40 41 40 39 39 39 39 40 40 39 34 37 35 35 34 37 37 32 30 30 31 37 38 38 38 38 38 38 36 33 33 31 29 32 30 27 27 28 28 30 39 39
42 42 42 42 41 40 38 37 37 30 30 28 31 33 34 34 35 35 30 28 26 28 29 30 31 32 34 34 37 36 35 32 31 27 29 28 28 26 22 26 28 29 28

GFSMA_sfc_temp_048.txt.gz
Temp
62 60 59 61 63 62 60 61 61 61 61 61 61 61 59 57 57 57 56 65 66 69 70 70 69 68 67 66 66 65 65 64 64 64 63 62 62 62 61 61 61 61 61
62 63 61 62 62 61 61 62 61 60 60 60 60 60 58 58 58 57 56 57 64 66 68 70 69 68 67 66 65 65 64 64 63 63 63 62 61 61 60 60 60 60 60
63 63 62 60 61 62 62 61 61 60 59 60 59 58 58 58 57 57 55 55 56 62 65 67 68 68 67 66 65 64 64 63 63 62 62 61 60 60 59 59 59 59 59
64 62 61 61 62 61 61 60 59 57 56 56 55 55 56 57 57 56 56 55 55 57 61 64 65 67 66 66 66 65 64 63 62 62 61 60 59 59 58 58 58 58 58
65 63 61 60 62 62 60 61 58 58 55 54 55 53 53 54 56 59 55 55 54 53 54 62 63 63 65 66 65 65 64 63 62 61 60 59 59 58 57 57 57 57 58
65 62 61 61 61 60 59 58 58 55 55 54 61 57 51 52 53 52 54 56 53 53 53 54 54 55 61 64 64 64 63 63 62 61 59 58 57 56 56 56 57 57 57
64 62 60 60 60 60 60 58 56 55 52 53 52 51 50 50 51 51 52 51 52 52 51 51 50 50 53 61 63 63 63 63 61 60 59 57 56 55 55 55 56 56 56
62 63 61 60 59 58 57 56 56 52 53 52 51 48 47 49 50 51 49 51 49 51 51 52 50 50 48 49 52 62 63 63 61 60 58 57 56 55 55 55 55 55 54
63 63 61 60 59 59 58 55 54 55 54 53 54 52 45 46 44 47 48 48 48 46 48 50 50 50 48 47 52 56 58 59 60 60 58 57 55 55 54 54 54 54 54
62 63 62 60 59 57 56 57 57 54 54 53 54 55 54 51 48 45 47 46 47 48 46 46 48 49 49 46 50 52 54 54 57 59 58 57 56 55 54 54 53 53 53
61 61 61 59 58 59 57 55 54 54 54 54 54 52 52 51 50 47 44 45 45 46 46 46 46 46 48 47 45 48 52 52 53 56 57 57 55 55 54 53 53 53 52
61 60 60 59 59 59 56 55 55 54 54 52 54 52 51 50 48 46 44 45 46 46 47 46 45 45 45 45 50 51 51 51 51 54 55 55 55 54 54 53 53 52 52
57 59 60 58 58 57 55 55 55 53 53 52 51 50 52 50 52 51 48 46 45 46 48 46 45 44 47 44 44 51 52 49 49 51 53 53 53 53 53 52 52 52 51
59 60 59 58 56 57 55 54 54 54 53 52 52 51 51 51 52 51 49 45 41 41 43 47 46 45 44 44 44 49 46 48 48 48 50 51 51 51 51 51 51 50 50
57 56 57 56 55 55 54 53 54 53 53 51 51 50 50 50 50 48 48 47 41 37 37 39 41 45 44 43 43 43 42 48 47 46 47 48 50 50 50 50 50 50 49
57 55 55 56 54 53 55 54 52 52 52 50 50 49 48 47 46 46 46 45 44 41 37 38 39 41 43 47 45 41 41 46 46 45 45 46 47 48 49 49 49 49 49
56 56 55 54 53 54 54 53 52 51 50 49 48 47 46 46 45 45 45 45 43 43 41 43 39 40 39 40 43 41 41 40 42 45 45 45 45 45 46 46 47 47 47
56 55 54 53 54 53 52 51 50 51 49 45 46 46 45 47 45 45 44 43 42 41 40 37 36 36 37 39 39 38 42 45 43 45 46 45 45 44 44 45 44 44 45
55 54 54 53 53 52 51 51 51 49 47 46 46 46 45 45 44 43 42 40 38 42 38 37 38 37 36 37 38 39 40 41 45 47 45 44 44 45 45 44 43 43 43
54 53 53 53 52 51 50 49 47 46 45 45 46 45 45 45 43 42 41 37 39 35 36 36 37 38 35 38 35 38 39 35 39 45 45 44 45 45 44 44 43 43 43
53 52 52 50 50 49 48 46 46 45 45 44 44 45 45 44 43 41 39 38 35 35 34 34 34 34 33 32 30 34 34 38 38 35 36 38 40 41 38 43 42 43 43
51 50 49 47 46 46 41 42 45 44 44 44 42 43 44 43 42 39 38 38 36 31 29 29 30 30 32 31 34 33 34 33 32 34 31 35 36 34 37 36 39 40 41
48 46 45 45 44 44 40 41 41 44 43 42 41 41 42 42 38 35 35 35 34 36 35 30 28 29 30 32 33 34 34 33 32 36 32 34 30 35 37 39 39 40 41
46 44 43 44 44 43 40 40 39 41 40 40 40 37 36 33 34 33 31 29 30 31 31 33 28 30 30 32 31 32 31 32 34 36 34 31 35 33 37 35 39 40 40
43 42 43 43 42 39 39 39 40 39 37 36 36 36 33 31 35 35 30 28 28 29 35 35 36 36 35 35 35 32 29 29 27 31 31 33 33 29 28 29 32 39 39
41 40 38 38 39 37 38 38 37 35 30 28 31 31 34 32 34 34 28 26 26 26 27 28 29 30 32 32 34 32 31 28 28 27 29 29 26 28 26 28 28 28 28